Wind_Speed
8 8 7 5 3 1 0 2 4 4 6 8 9 9 9 10 10 10 9 9 9 9 9 9 8 7 6 7 7 6 6 6 5 5 4 4 3 3 3 3 3 3 3 3 3 4 4 4 4
9 9 8 6 4 1 1 2 3 5 7 8 9 9 9 9 9 9 9 9 9 9 9 9 7 7 6 6 7 6 5 6 5 5 4 4 3 3 3 3 3 3 3 3 2 3 3 3 3
10 10 9 7 5 2 2 2 4 6 8 9 10 11 10 9 9 9 9 9 9 9 9 9 8 7 7 7 7 6 6 6 6 5 4 4 3 3 3 3 3 3 3 2 2 2 3 3 3
12 11 10 8 6 4 5 5 7 8 8 9 10 11 10 9 9 9 9 9 9 9 9 9 8 8 8 7 6 6 6 6 5 5 4 4 4 4 4 4 4 4 3 3 3 2 3 4 3
12 12 11 9 6 5 6 7 7 8 9 10 10 11 11 9 9 8 8 8 9 9 9 9 8 8 8 7 5 6 5 5 5 5 4 4 4 4 4 4 4 4 4 3 3 3 3 3 4
13 13 12 10 7 6 7 8 8 9 11 12 12 11 10 9 9 8 8 8 8 9 9 8 8 8 8 7 6 5 5 5 5 4 4 4 4 4 4 3 4 3 3 4 4 4 3 3 4
15 14 13 12 10 8 8 9 10 11 11 12 12 12 10 10 9 8 8 8 9 9 9 8 8 8 8 8 7 6 5 5 5 5 4 5 4 3 4 3 4 3 4 4 4 4 4 4 4
17 16 15 13 12 11 10 11 12 12 12 12 12 12 11 10 9 9 9 9 9 9 8 7 8 7 7 7 7 6 5 5 5 5 5 5 4 4 4 4 4 4 4 4 5 5 5 4 4
18 16 15 14 13 12 12 12 13 13 13 13 13 13 11 11 10 10 9 9 8 8 8 7 7 7 7 7 7 6 6 6 5 5 5 4 4 4 4 4 4 4 5 5 5 6 6 5 5
19 18 16 16 15 14 14 13 14 14 14 14 13 13 12 11 11 10 10 11 9 9 8 7 7 7 7 7 7 6 5 5 5 5 5 5 5 5 5 4 4 5 5 4 5 5 6 6 6
19 17 17 17 17 16 15 15 15 16 16 14 14 13 12 12 11 11 11 12 11 9 8 8 7 7 7 7 7 7 6 5 5 5 5 5 5 5 5 5 5 5 4 4 5 5 6 6 6
19 18 19 18 17 17 16 16 17 17 16 15 14 14 14 13 12 12 11 11 11 10 9 9 8 8 8 8 8 7 7 7 6 6 6 6 6 6 6 5 5 5 5 5 5 6 6 7 7
20 20 20 19 18 17 17 18 18 18 16 15 15 15 14 14 14 13 13 12 12 12 11 9 8 8 8 8 8 7 8 7 7 7 7 7 7 6 6 5 5 5 4 4 5 5 6 6 6
20 20 20 20 19 19 19 19 19 18 16 16 16 16 15 15 15 15 14 14 13 12 12 9 9 9 9 9 9 8 8 8 7 7 7 7 7 6 6 5 6 6 5 5 5 6 6 5 6
21 21 21 19 19 19 20 20 19 17 16 16 17 16 15 14 15 15 14 14 13 12 11 11 10 11 11 11 10 9 8 8 8 8 7 8 7 7 7 7 7 6 6 5 5 5 5 5 6
22 21 20 19 19 19 20 19 18 18 17 16 16 16 15 15 15 15 14 14 13 12 11 12 12 12 11 11 10 9 9 9 9 9 9 9 8 8 7 7 7 7 6 5 5 5 6 6 7
22 20 19 18 19 19 20 19 17 18 17 17 16 16 16 16 15 15 15 15 15 14 13 13 13 12 11 11 11 10 10 9 9 9 9 9 9 8 8 7 7 7 7 6 6 7 7 7 8
20 20 19 19 20 20 20 19 18 19 18 18 18 17 17 17 16 15 15 15 16 15 14 14 14 13 12 12 12 11 10 10 10 9 9 10 10 10 10 8 8 7 7 7 7 8 8 8 8
21 20 20 20 20 21 21 20 20 20 20 19 18 18 16 15 15 15 15 15 15 15 15 15 15 14 13 13 12 11 11 10 10 10 10 11 11 11 10 8 8 7 8 8 8 8 9 9 10
22 20 18 18 19 21 20 20 20 20 21 20 18 17 17 15 16 16 15 15 15 16 17 17 16 15 14 13 13 13 11 10 10 10 11 11 11 11 11 9 8 8 9 9 10 10 10 10 11
22 20 19 19 18 19 21 21 20 20 21 20 18 18 18 17 16 16 16 15 16 17 18 17 17 17 15 14 14 13 12 11 11 11 11 11 11 11 11 10 10 10 10 10 10 11 11 11 12
21 20 19 19 20 20 21 23 21 19 20 20 19 18 18 17 17 16 16 17 17 18 18 17 16 16 15 15 14 14 14 13 13 12 12 12 12 12 11 11 11 12 12 11 11 11 11 11 11
20 20 21 21 20 20 21 23 21 20 20 20 20 19 18 17 16 16 17 18 18 18 18 17 17 16 16 16 15 14 14 14 13 13 13 12 12 12 12 12 12 13 13 12 12 12 12 11 11
20 21 22 22 23 22 20 22 22 20 20 20 20 19 18 16 16 17 17 19 18 18 18 18 18 17 17 16 16 15 15 14 14 14 14 14 13 13 13 14 14 14 14 14 14 13 13 13 13
22 22 23 23 24 23 21 23 22 20 20 19 19 18 17 16 16 16 17 18 18 18 18 18 18 17 17 17 16 16 16 15 15 15 15 15 15 15 15 15 15 16 16 15 15 14 14 14 14
22 23 24 25 24 22 22 24 21 20 19 19 19 18 17 17 17 18 18 18 19 19 19 18 18 17 17 17 17 17 17 17 16 16 16 16 16 16 16 16 17 17 16 16 15 15 15 16 15
23 24 24 25 25 24 23 24 22 20 19 19 19 18 18 17 17 18 19 19 19 19 18 18 18 18 18 18 18 18 18 18 18 17 17 17 17 17 17 17 18 18 18 17 16 16 16 17 16
23 23 24 25 26 27 26 24 22 20 20 20 20 19 18 17 17 17 18 19 19 19 19 18 19 19 19 19 19 19 19 19 19 18 17 17 18 18 18 18 18 18 19 18 18 18 18 17 17
22 24 25 26 28 28 28 26 22 22 22 22 21 19 19 18 18 18 18 19 20 20 20 20 20 20 21 21 20 20 20 20 19 18 18 18 19 20 19 19 19 19 19 19 19 19 19 19 19
23 23 25 27 28 29 29 27 24 24 23 23 22 21 21 20 20 20 20 20 20 20 20 20 20 20 21 21 20 21 21 21 20 19 20 20 20 20 20 20 20 20 20 20 19 19 20 19 19
Wind_Direction
181 175 170 168 164 188 40 42 21 2 347 335 334 338 341 342 344 346 347 350 359 4 3 360 353 351 352 352 351 346 344 341 333 321 322 315 304 301 305 296 287 280 271 265 255 238 228 215 214
190 188 185 177 188 221 268 319 338 332 336 332 327 331 336 336 339 338 342 347 354 357 358 359 354 352 352 351 349 348 348 343 338 333 329 318 310 308 308 300 285 281 272 260 251 237 221 204 206
197 195 194 189 202 257 281 303 317 321 325 328 324 324 328 330 334 335 338 343 348 353 353 353 354 352 350 345 344 349 350 346 341 336 333 327 316 309 305 303 293 282 275 268 237 225 223 219 217
202 198 202 205 216 245 263 280 304 313 311 316 314 315 320 325 331 334 334 337 343 350 352 349 349 349 349 345 344 350 348 345 345 337 330 326 321 312 302 293 286 280 281 284 260 237 232 223 228
209 206 209 212 219 241 259 277 302 306 305 310 310 317 317 322 327 329 332 336 341 345 347 346 346 347 347 344 347 356 354 348 345 340 326 317 312 305 297 288 286 287 293 284 263 240 228 227 235
213 212 211 211 219 237 263 278 288 293 300 306 310 313 316 318 322 325 329 337 340 341 342 344 344 344 346 344 335 341 355 353 344 335 329 317 308 295 302 300 293 286 288 283 257 241 233 234 239
217 215 214 213 219 230 253 274 281 281 289 298 306 308 312 315 321 326 327 330 332 334 336 340 341 341 341 343 339 336 344 348 344 340 330 322 324 317 304 303 300 284 281 284 263 249 244 242 245
221 219 215 216 221 229 243 262 276 277 284 290 297 302 307 312 317 324 324 326 328 328 329 330 332 335 337 340 340 333 339 343 340 339 328 318 318 317 303 297 298 293 289 280 266 260 251 243 248
225 220 215 217 227 234 245 262 273 274 281 289 295 298 302 305 311 317 320 323 326 326 325 323 325 327 330 335 335 332 331 332 329 324 322 321 318 311 299 295 297 291 286 284 270 265 262 254 254
228 221 219 223 230 239 246 261 273 278 281 283 287 292 298 302 308 311 316 316 318 320 319 316 318 322 322 327 331 328 324 323 320 311 314 313 312 307 294 285 292 291 288 283 273 267 262 257 254
232 226 220 226 234 241 247 257 265 270 274 280 286 289 291 298 303 306 309 311 310 310 312 313 311 313 317 320 325 327 324 323 319 315 318 310 315 314 299 282 278 277 278 280 275 265 261 261 259
231 228 225 229 234 242 249 254 260 265 269 276 281 284 288 292 293 295 301 303 303 305 303 302 306 305 307 309 315 319 318 320 319 322 319 318 317 311 307 298 278 276 274 279 285 272 270 262 258
232 230 230 232 238 242 248 253 257 261 268 273 275 279 284 286 289 292 293 292 297 298 298 299 296 296 296 302 311 312 316 316 319 317 316 319 318 317 309 303 308 299 293 288 284 283 272 263 253
232 232 232 233 237 243 248 252 255 259 264 267 273 278 280 281 284 289 288 288 291 292 291 290 290 292 291 298 307 307 308 307 307 309 310 313 315 317 312 310 312 310 307 300 286 279 273 263 254
229 232 233 234 239 245 249 251 254 259 261 267 272 278 281 285 285 285 284 287 289 289 288 287 287 288 289 293 299 302 303 300 301 300 304 304 307 305 302 304 308 305 301 296 285 277 273 263 252
230 232 233 235 240 245 251 253 254 258 262 267 271 277 280 282 283 280 281 283 283 285 287 287 285 283 284 288 292 295 293 292 298 297 301 303 303 306 304 292 297 295 295 296 286 279 274 266 260
230 233 232 233 239 245 252 255 256 258 260 265 270 274 276 278 279 275 276 279 280 282 282 285 285 280 280 283 285 286 288 287 293 296 300 303 305 305 306 294 293 294 291 291 286 282 274 270 265
232 233 231 231 237 243 251 256 258 259 259 263 269 272 275 275 274 274 275 276 278 280 279 282 283 282 279 277 279 280 286 284 286 288 295 301 306 305 299 297 292 295 291 287 285 282 276 273 269
233 235 235 237 240 243 249 257 259 258 258 262 268 270 273 275 273 271 274 274 277 278 277 282 280 280 276 275 277 277 281 282 280 283 289 296 303 302 298 293 292 295 292 287 287 285 281 276 272
232 235 236 239 241 243 247 253 256 255 257 263 267 268 274 276 273 271 274 274 275 277 277 276 275 276 270 270 270 271 274 280 277 279 284 290 296 296 292 283 289 293 292 288 285 283 281 277 275
233 235 234 236 241 247 251 252 251 254 256 259 265 270 273 276 279 275 274 274 275 276 278 277 274 274 267 267 266 265 267 274 275 277 283 286 288 289 288 280 284 288 288 285 284 284 283 281 277
237 238 239 238 239 245 251 253 250 252 256 260 264 267 272 275 277 273 273 272 275 275 277 277 277 274 270 269 265 262 264 269 271 273 279 280 281 283 282 280 281 283 286 285 283 282 280 279 278
238 238 238 238 240 245 249 255 256 257 258 264 267 267 271 275 274 273 273 273 272 272 275 275 275 273 270 270 263 262 263 268 267 269 275 277 277 276 275 276 277 281 283 283 283 283 279 276 276
237 236 235 237 242 245 248 254 256 254 259 265 267 270 272 271 273 275 275 272 269 270 271 269 268 269 267 264 262 260 262 266 268 267 271 275 272 272 274 274 275 278 279 281 282 281 279 277 275
234 235 236 236 241 245 246 250 254 253 258 266 269 266 265 268 273 275 274 272 271 270 267 263 263 265 262 262 262 262 263 265 268 269 271 273 273 273 274 273 274 276 276 279 278 277 276 277 276
237 236 238 242 245 248 244 249 255 254 257 261 266 264 262 264 268 269 270 272 272 272 268 265 265 263 262 263 263 263 262 264 268 270 272 273 273 273 272 274 274 274 275 277 276 274 275 276 276
237 237 239 243 246 248 246 250 256 254 256 257 258 264 269 267 267 269 270 271 272 270 268 268 268 266 264 265 264 263 263 264 268 270 272 273 272 272 273 274 276 274 272 273 275 274 273 274 272
240 238 238 242 244 246 248 250 254 254 257 261 263 264 269 269 270 272 272 270 269 269 269 268 268 268 266 265 264 265 267 267 268 269 271 272 271 273 274 275 276 275 275 275 275 273 270 272 272
235 236 240 243 244 246 250 252 254 255 256 258 260 264 265 264 265 267 267 268 267 269 269 268 268 266 265 265 265 265 267 269 267 268 270 271 270 270 272 274 275 275 275 275 274 271 271 272 272
237 238 241 242 243 246 250 252 252 254 256 257 257 259 263 266 265 265 265 266 267 266 265 266 266 266 266 266 264 264 267 269 267 268 269 269 267 267 269 270 270 271 271 272 272 271 271 272 273
Height
5902 5902 5903 5903 5904 5903 5902 5902 5902 5902 5901 5900 5900 5899 5898 5898 5898 5898 5895 5893 5891 5889 5888 5887 5886 5885 5884 5883 5882 5881 5880 5880 5879 5878 5878 5877 5876 5876 5876 5875 5875 5875 5874 5874 5873 5873 5873 5873 5874
5901 5901 5902 5902 5902 5902 5902 5902 5902 5901 5901 5900 5899 5899 5898 5898 5897 5896 5894 5892 5891 5890 5888 5887 5886 5885 5884 5883 5882 5881 5880 5879 5878 5878 5877 5876 5876 5876 5875 5875 5874 5874 5874 5873 5873 5873 5873 5873 5873
5899 5900 5901 5901 5901 5901 5901 5900 5901 5900 5900 5899 5899 5898 5897 5897 5896 5894 5893 5892 5890 5890 5889 5888 5887 5885 5884 5883 5882 5881 5880 5879 5878 5877 5877 5876 5876 5875 5875 5875 5874 5874 5873 5873 5873 5872 5872 5872 5873
5898 5899 5900 5900 5900 5900 5899 5899 5899 5899 5899 5899 5898 5897 5896 5896 5895 5894 5892 5891 5890 5889 5888 5887 5886 5885 5884 5882 5881 5880 5879 5878 5877 5876 5876 5876 5875 5875 5874 5874 5874 5873 5873 5873 5872 5872 5872 5872 5873
5897 5898 5898 5898 5898 5898 5897 5897 5898 5898 5898 5898 5897 5896 5895 5895 5894 5893 5892 5891 5890 5889 5888 5887 5886 5885 5884 5882 5881 5880 5879 5878 5877 5876 5876 5875 5875 5874 5874 5873 5872 5872 5872 5872 5872 5872 5872 5872 5872
5895 5896 5897 5897 5896 5897 5896 5896 5896 5897 5897 5896 5896 5895 5894 5894 5893 5892 5890 5890 5889 5888 5887 5886 5885 5884 5883 5882 5881 5879 5878 5877 5876 5876 5875 5874 5874 5873 5873 5872 5872 5871 5871 5871 5871 5871 5871 5872 5872
5893 5894 5894 5895 5895 5895 5895 5894 5894 5895 5894 5894 5894 5894 5893 5893 5892 5891 5889 5889 5888 5887 5887 5886 5885 5884 5883 5881 5880 5879 5878 5877 5876 5875 5874 5873 5873 5872 5872 5871 5871 5871 5870 5870 5870 5870 5870 5871 5871
5890 5892 5892 5893 5893 5893 5893 5892 5892 5892 5892 5892 5892 5892 5892 5891 5890 5890 5888 5888 5887 5886 5885 5885 5884 5883 5882 5881 5880 5878 5877 5876 5875 5874 5873 5872 5871 5871 5871 5871 5870 5869 5869 5869 5869 5869 5870 5870 5870
5887 5889 5889 5890 5890 5891 5890 5890 5890 5890 5890 5890 5890 5890 5890 5889 5889 5888 5887 5886 5885 5885 5884 5883 5883 5882 5881 5880 5879 5878 5876 5875 5875 5874 5873 5872 5871 5870 5870 5869 5869 5868 5868 5868 5868 5868 5868 5869 5869
5883 5885 5887 5888 5888 5888 5887 5887 5888 5888 5888 5888 5887 5888 5888 5888 5887 5887 5885 5884 5884 5883 5883 5882 5881 5881 5880 5879 5878 5877 5876 5875 5874 5873 5872 5871 5870 5869 5868 5868 5868 5867 5867 5867 5867 5867 5867 5867 5867
5880 5882 5883 5884 5884 5884 5885 5885 5885 5885 5885 5886 5886 5886 5885 5885 5885 5884 5883 5882 5882 5881 5881 5881 5880 5879 5878 5877 5876 5875 5874 5873 5872 5871 5870 5870 5869 5868 5868 5867 5867 5866 5866 5866 5866 5865 5865 5866 5866
5877 5879 5879 5880 5881 5881 5881 5882 5882 5882 5883 5883 5883 5883 5883 5882 5883 5882 5881 5880 5880 5880 5879 5879 5878 5877 5876 5875 5875 5874 5873 5872 5871 5870 5870 5869 5868 5868 5867 5866 5866 5865 5865 5864 5864 5864 5864 5864 5864
5873 5875 5876 5877 5877 5878 5879 5879 5879 5879 5880 5880 5880 5880 5880 5880 5879 5879 5879 5878 5878 5877 5877 5876 5875 5875 5875 5874 5873 5872 5871 5870 5870 5869 5868 5868 5867 5866 5866 5865 5864 5864 5863 5863 5862 5862 5862 5862 5862
5869 5870 5871 5872 5873 5874 5875 5876 5876 5877 5877 5877 5877 5877 5877 5877 5876 5876 5875 5875 5875 5875 5874 5874 5873 5873 5872 5872 5871 5870 5869 5868 5868 5867 5866 5866 5866 5865 5864 5864 5863 5862 5862 5861 5860 5860 5860 5860 5860
5864 5866 5868 5869 5870 5870 5871 5872 5873 5874 5874 5874 5874 5874 5874 5873 5873 5873 5873 5872 5872 5872 5871 5871 5870 5870 5869 5869 5868 5868 5867 5866 5866 5865 5864 5864 5864 5863 5862 5862 5862 5861 5860 5860 5859 5859 5858 5858 5858
5860 5862 5864 5866 5866 5866 5868 5868 5869 5869 5870 5870 5871 5871 5871 5870 5870 5870 5869 5869 5869 5868 5868 5868 5868 5867 5866 5866 5865 5865 5865 5864 5864 5863 5862 5862 5861 5861 5860 5860 5860 5859 5859 5858 5858 5857 5857 5856 5856
5856 5858 5860 5862 5862 5862 5862 5863 5864 5864 5865 5866 5867 5868 5867 5867 5866 5866 5866 5866 5865 5865 5865 5864 5864 5864 5863 5863 5862 5862 5862 5862 5861 5861 5860 5860 5859 5859 5858 5858 5858 5857 5856 5856 5856 5855 5855 5855 5855
5852 5853 5855 5856 5857 5857 5857 5858 5859 5860 5861 5862 5863 5863 5863 5863 5863 5863 5863 5862 5862 5861 5861 5861 5861 5860 5860 5860 5859 5859 5858 5858 5858 5858 5858 5858 5857 5856 5856 5856 5855 5855 5854 5854 5853 5853 5852 5852 5852
5847 5848 5850 5852 5852 5852 5852 5853 5854 5855 5856 5857 5858 5859 5859 5859 5859 5859 5859 5859 5858 5858 5857 5857 5856 5856 5856 5856 5856 5856 5856 5855 5855 5855 5855 5855 5854 5854 5853 5853 5852 5852 5852 5851 5851 5850 5850 5850 5850
5841 5843 5845 5847 5847 5847 5847 5848 5849 5850 5851 5852 5853 5854 5854 5855 5855 5855 5855 5855 5855 5854 5853 5853 5853 5853 5853 5852 5853 5853 5852 5852 5852 5852 5852 5852 5852 5851 5851 5850 5850 5850 5849 5849 5848 5848 5847 5847 5846
5836 5838 5840 5842 5842 5842 5843 5844 5845 5845 5846 5847 5848 5849 5850 5850 5851 5851 5851 5851 5851 5850 5849 5849 5848 5848 5848 5848 5849 5849 5849 5849 5849 5849 5849 5849 5849 5848 5848 5848 5847 5847 5846 5846 5846 5845 5844 5844 5843
5832 5834 5836 5837 5837 5838 5839 5838 5840 5841 5841 5843 5843 5844 5845 5846 5846 5846 5846 5846 5846 5845 5845 5845 5844 5844 5844 5844 5845 5845 5845 5846 5846 5846 5846 5846 5845 5845 5845 5844 5844 5844 5843 5843 5842 5841 5841 5840 5840
5827 5829 5831 5832 5832 5833 5833 5833 5835 5835 5836 5838 5839 5839 5840 5841 5841 5841 5841 5841 5841 5841 5841 5841 5841 5841 5840 5840 5840 5841 5842 5842 5842 5842 5842 5842 5841 5841 5841 5841 5840 5840 5840 5839 5839 5838 5837 5836 5836
5822 5824 5825 5826 5826 5827 5829 5829 5830 5831 5832 5833 5834 5835 5835 5835 5836 5836 5836 5836 5836 5836 5836 5836 5836 5836 5836 5837 5837 5837 5838 5838 5838 5838 5838 5838 5837 5837 5837 5837 5836 5836 5836 5836 5835 5834 5833 5832 5832
5816 5818 5819 5820 5820 5822 5824 5823 5825 5826 5827 5828 5829 5829 5830 5830 5831 5831 5831 5831 5831 5831 5831 5831 5831 5831 5832 5832 5833 5833 5834 5834 5834 5833 5833 5833 5833 5833 5833 5832 5832 5832 5831 5831 5830 5830 5829 5828 5827
5811 5812 5814 5815 5816 5818 5819 5818 5821 5822 5822 5822 5823 5823 5824 5825 5825 5826 5826 5826 5826 5826 5826 5826 5826 5827 5827 5827 5828 5829 5829 5829 5829 5829 5828 5828 5828 5828 5828 5828 5827 5827 5826 5826 5825 5825 5824 5824 5823
5805 5806 5809 5810 5811 5812 5813 5814 5815 5816 5816 5816 5817 5817 5818 5819 5819 5820 5820 5820 5821 5821 5822 5822 5822 5822 5823 5823 5823 5823 5824 5824 5824 5824 5823 5823 5823 5823 5823 5822 5822 5821 5821 5821 5820 5820 5820 5819 5818
5800 5802 5803 5804 5804 5805 5806 5807 5810 5810 5811 5812 5812 5813 5813 5813 5814 5815 5815 5815 5815 5816 5816 5817 5818 5818 5818 5817 5817 5817 5818 5818 5818 5818 5818 5818 5818 5817 5817 5817 5817 5816 5815 5815 5815 5815 5815 5814 5813
5795 5796 5796 5798 5799 5799 5800 5804 5805 5806 5806 5807 5807 5807 5807 5808 5808 5809 5809 5810 5810 5811 5811 5812 5812 5812 5812 5812 5812 5812 5812 5812 5812 5812 5812 5812 5812 5812 5812 5812 5811 5811 5810 5810 5809 5809 5809 5808 5808
5788 5790 5791 5792 5793 5793 5794 5799 5799 5800 5800 5800 5801 5802 5802 5803 5803 5803 5804 5804 5804 5805 5806 5806 5806 5806 5806 5806 5806 5806 5806 5806 5806 5806 5807 5807 5807 5807 5806 5806 5806 5805 5805 5804 5804 5803 5803 5802 5802